Flag for Ecuador Weather past 2 weeks in Quito, Ecuador

Now
63 °F

Passing clouds.


Feels Like: 63 °F
Forecast: 48 / 63 °F
Wind: 15 mph from South

Location: Latacunga Airport

Current Time: May 24, 2015 at 7:02:11 PM

Latest Report: May 24, 2015 at 6:00 PM


Visibility: N/A

Pressure: 30.39 "Hg

Humidity: 59%

Dew point: 48 °F

Location of QuitoLocation

Historic Weather in Quito — Graph

°F

Quito temperature yesterday

Maximum temperature yesterday: 63 °F (at 12:00 PM)
Minimum temperature yesterday: 50 °F (at 5:00 AM)
Average temperature yesterday: 54 °F

Past Weeks' High & Low Weather Summary

 TemperatureHumidityPressure
High70 °F (May 22, 3:00 PM)100% (May 11, 4:00 AM)30.54 "Hg (May 11, 4:00 AM)
Low45 °F (May 24, 4:00 AM)49% (May 22, 2:00 PM)30.33 "Hg (May 10, 3:00 PM)
Average57 °F82%30.44 "Hg
* Reported May 9 6:00 PM — May 24 6:00 PM, Quito, Weather by CustomWeather, © 2015

Note: Actual official high and low records may vary slightly from our data, if they occured in-between our weather recording intervals... More about our weather records

Advertising

Quito weather history for previous 24 hours

 ConditionsComfort  
Time TempWeatherWind HumidityBarometerVisibility
6:00 PM
Sun, May 24
63 °FPassing clouds.15 mph59%30.39 "HgN/A
5:00 PM66 °FScattered clouds.14 mph52%30.36 "HgN/A
4:00 PM68 °FScattered clouds.14 mph49%30.36 "HgN/A
3:00 PM66 °FScattered clouds.14 mph56%30.39 "HgN/A
2:00 PM64 °FBroken clouds.16 mph56%30.39 "HgN/A
1:00 PM64 °FBroken clouds.16 mph56%30.42 "HgN/A
12:00 PM64 °FPartly sunny.15 mph56%30.45 "HgN/A
11:00 AM63 °FPartly sunny.14 mph59%30.45 "HgN/A
10:00 AM59 °FPassing clouds.12 mph68%30.48 "HgN/A
9:00 AM55 °FPassing clouds.2 mph77%30.48 "HgN/A
8:00 AM52 °FPassing clouds.2 mph88%30.48 "HgN/A
7:00 AM48 °FScattered clouds.No wind94%30.45 "HgN/A
6:00 AM45 °FPartly cloudy.3 mph100%30.45 "HgN/A
5:00 AM46 °FPassing clouds.2 mph93%30.45 "HgN/A
4:00 AM45 °FPassing clouds.1 mph100%30.45 "HgN/A
3:00 AM46 °FPassing clouds.2 mph100%30.45 "HgN/A
2:00 AM48 °FPassing clouds.No wind94%30.48 "HgN/A
1:00 AM48 °FPassing clouds.2 mph100%30.48 "HgN/A
12:00 AM48 °FPassing clouds.No wind100%30.51 "HgN/A
11:00 PM
Sat, May 23
50 °FPassing clouds.2 mph100%30.51 "HgN/A
10:00 PM50 °FPassing clouds.2 mph100%30.51 "Hg5 mi
9:00 PM52 °FPassing clouds.3 mph94%30.51 "Hg5 mi
8:00 PM52 °FPassing clouds.12 mph94%30.48 "Hg5 mi
7:00 PM52 °FScattered showers. Partly cloudy.9 mph94%30.48 "HgN/A
Weather by CustomWeather, © 2015

See weather overviewHow to use our weather pages